Hourly Data Report for October 27, 2014

All times are specified in Local Standard Time (LST). Add 1 hour to adjust for Daylight Saving Time where and when it is observed.

ARVIAT A
NUNAVUT

61°05'38.000" N
94°04'18.000" W
10.40 m
2300427
71174
YEK

Download Data

Hourly Data (October 2014)
Hourly Data Report for October 27, 2014
Temp Definition
°C
Dew Point Temp Definition
°C
Rel Hum Definition
%
Wind Dir Definition
10's deg

Wind Spd Definition
km/h
Visibility Definition
km
Stn Press Definition
kPa
Hmdx Definition


Wind Chill Definition


Weather Definition


TIME
00:00 Legend Double Dagger -6.1 -7.3 91 33 39 16.1 101.20   -15 LegendNANA
01:00 Legend Double Dagger -6.3 -7.3 93 33 28 16.1 101.26   -14 LegendNANA
02:00 Legend Double Dagger -7.1 -8.0 93 35 45 16.1 101.27   -17 LegendNANA
03:00 Legend Double Dagger -6.9 -7.9 92 34 37 16.1 101.34   -16 LegendNANA
04:00 Legend Double Dagger -7.0 -8.1 92 34 32 16.1 101.36   -16 LegendNANA
05:00 Legend Double Dagger -6.9 -8.1 91 34 35 16.1 101.40   -16 LegendNANA
06:00 Legend Double Dagger -6.6 -7.6 93 35 37 16.1 101.42   -16 LegendNANA
07:00 Legend Double Dagger -6.3 -7.4 92 35 35 16.1 101.45   -15 LegendNANA
08:00 Legend Double Dagger -6.7 -7.9 92 33 37 16.1 101.44   -16 LegendNANA
09:00 Legend Double Dagger -7.0 -7.8 94 33 30 16.1 101.47   -16 LegendNANA
10:00 Legend Double Dagger -8.0 -9.1 92 33 34 16.1 101.49   -17 LegendNANA
11:00 Legend Double Dagger -7.3 -8.0 95 34 32 16.1 101.53   -16 LegendNANA
12:00 Legend Double Dagger -6.5 -7.5 92 33 30 16.1 101.55   -15 LegendNANA
13:00 Legend Double Dagger -6.2 -7.5 91 32 32 16.1 101.60   -15 LegendNANA
14:00 Legend Double Dagger -5.5 -7.2 88 33 30 16.1 101.61   -14 LegendNANA
15:00 Legend Double Dagger -5.9 -7.1 91 32 28 16.1 101.65   -14 LegendNANA
16:00 Legend Double Dagger -5.8 -7.6 87 34 34 16.1 101.66   -15 LegendNANA
17:00 Legend Double Dagger -5.9 -7.1 91 32 34 16.1 101.71   -15 LegendNANA
18:00 Legend Double Dagger -5.9 -7.0 92 34 35 16.1 101.75   -15 LegendNANA
19:00 Legend Double Dagger -6.0 -6.8 94 34 28 9.7 101.77   -14 Fog
20:00 Legend Double Dagger -6.3 -7.4 92 34 39 14.5 101.78   -16 LegendNANA
21:00 Legend Double Dagger -6.6 -7.9 91 34 37 16.1 101.82   -16 LegendNANA
22:00 Legend Double Dagger -6.8 -8.3 90 34 39 16.1 101.85   -16 LegendNANA
23:00 Legend Double Dagger -7.9 -9.4 89 33 43 16.1 101.87   -18 LegendNANA

Notes on Data Quality.

Legend

  • E = Estimated
  • M = Missing
  • NA = Not Available
  • ‡ = Partner data that is not subject to review by the National Climate Archives
Date modified: